TimeCDT,TemperatureF,Dew PointF,Humidity,Sea Level PressureIn,VisibilityMPH,Wind Direction,Wind SpeedMPH,Gust SpeedMPH,PrecipitationIn,Events,Conditions,WindDirDegrees,DateUTC
12:14 AM,33.8,28.4,81,30.09,10.0,WNW,17.3,-,N/A,,Overcast,290,2012-10-26 05:14:00
12:34 AM,33.8,28.4,81,30.09,10.0,WNW,26.5,31.1,N/A,,Overcast,300,2012-10-26 05:34:00
1:14 AM,33.8,26.6,75,30.11,10.0,WNW,19.6,25.3,N/A,,Overcast,300,2012-10-26 06:14:00
1:35 AM,33.8,26.6,75,30.12,10.0,WNW,19.6,-,N/A,,Scattered Clouds,300,2012-10-26 06:35:00
1:55 AM,33.8,26.6,75,30.12,10.0,WNW,19.6,25.3,N/A,,Mostly Cloudy,300,2012-10-26 06:55:00
2:14 AM,33.8,26.6,75,30.13,10.0,WNW,17.3,-,N/A,,Overcast,300,2012-10-26 07:14:00
2:35 AM,33.8,26.6,75,30.13,10.0,WNW,17.3,-,N/A,,Overcast,300,2012-10-26 07:35:00
2:54 AM,33.8,26.6,75,30.14,10.0,WNW,16.1,21.9,N/A,,Overcast,300,2012-10-26 07:54:00
3:14 AM,33.8,26.6,75,30.14,10.0,WNW,17.3,24.2,N/A,,Overcast,300,2012-10-26 08:14:00
3:35 AM,33.8,24.8,70,30.14,10.0,WNW,19.6,-,N/A,,Overcast,300,2012-10-26 08:35:00
3:54 AM,33.8,24.8,70,30.15,10.0,WNW,15.0,-,N/A,,Overcast,300,2012-10-26 08:54:00
4:14 AM,33.8,26.6,75,30.16,10.0,WNW,11.5,-,N/A,,Overcast,300,2012-10-26 09:14:00
4:35 AM,33.8,24.8,70,30.16,10.0,WNW,18.4,24.2,N/A,,Overcast,290,2012-10-26 09:35:00
4:54 AM,32.0,24.8,75,30.16,10.0,NW,18.4,24.2,N/A,,Scattered Clouds,310,2012-10-26 09:54:00
5:14 AM,30.2,23.0,75,30.17,10.0,NW,18.4,-,N/A,,Clear,310,2012-10-26 10:14:00
5:35 AM,30.2,24.8,80,30.18,10.0,WNW,16.1,-,N/A,,Clear,300,2012-10-26 10:35:00
5:54 AM,30.2,24.8,80,30.19,10.0,WNW,13.8,-,N/A,,Clear,300,2012-10-26 10:54:00
6:14 AM,28.4,24.8,86,30.20,10.0,WNW,15.0,-,N/A,,Clear,290,2012-10-26 11:14:00
6:35 AM,28.4,24.8,86,30.20,10.0,WNW,12.7,-,N/A,,Scattered Clouds,290,2012-10-26 11:35:00
6:54 AM,30.2,23.0,75,30.20,10.0,WNW,15.0,21.9,N/A,,Scattered Clouds,300,2012-10-26 11:54:00
7:14 AM,30.2,23.0,75,30.21,10.0,WNW,17.3,-,N/A,,Mostly Cloudy,300,2012-10-26 12:14:00
7:54 AM,28.4,23.0,80,30.22,10.0,NW,16.1,19.6,N/A,,Mostly Cloudy,310,2012-10-26 12:54:00
8:54 AM,28.4,23.0,80,30.24,10.0,NW,10.4,-,N/A,,Overcast,310,2012-10-26 13:54:00
9:14 AM,30.2,24.8,80,30.24,10.0,NW,10.4,-,N/A,,Scattered Clouds,310,2012-10-26 14:14:00
9:35 AM,32.0,24.8,75,30.24,10.0,WNW,13.8,-,N/A,,Mostly Cloudy,290,2012-10-26 14:35:00
9:54 AM,32.0,24.8,75,30.24,10.0,WNW,16.1,20.7,N/A,,Overcast,290,2012-10-26 14:54:00
10:14 AM,33.8,24.8,70,30.25,10.0,WNW,19.6,-,N/A,,Overcast,290,2012-10-26 15:14:00
10:35 AM,33.8,24.8,70,30.25,10.0,WNW,19.6,-,N/A,,Overcast,290,2012-10-26 15:35:00
10:54 AM,33.8,24.8,70,30.25,10.0,WNW,18.4,-,N/A,,Overcast,300,2012-10-26 15:54:00
11:14 AM,33.8,23.0,65,30.26,10.0,NW,20.7,27.6,N/A,,Overcast,310,2012-10-26 16:14:00
11:35 AM,33.8,23.0,65,30.26,10.0,WNW,19.6,24.2,N/A,,Mostly Cloudy,300,2012-10-26 16:35:00
11:54 AM,33.8,21.2,60,30.26,10.0,WNW,23.0,-,N/A,,Mostly Cloudy,300,2012-10-26 16:54:00
12:15 PM,33.8,21.2,60,30.27,10.0,WNW,23.0,-,N/A,,Overcast,300,2012-10-26 17:15:00
12:35 PM,33.8,21.2,60,30.26,10.0,WNW,20.7,26.5,N/A,,Mostly Cloudy,300,2012-10-26 17:35:00
12:54 PM,33.8,21.2,60,30.26,10.0,NW,19.6,-,N/A,,Overcast,310,2012-10-26 17:54:00
1:15 PM,33.8,21.2,60,30.26,10.0,WNW,17.3,-,N/A,,Overcast,300,2012-10-26 18:15:00
1:35 PM,35.6,21.2,56,30.26,10.0,WNW,19.6,24.2,N/A,,Overcast,300,2012-10-26 18:35:00
1:54 PM,35.6,21.2,56,30.26,10.0,WNW,20.7,26.5,N/A,,Overcast,300,2012-10-26 18:54:00
2:15 PM,35.6,21.2,56,30.25,10.0,WNW,17.3,26.5,N/A,,Mostly Cloudy,300,2012-10-26 19:15:00
2:34 PM,33.8,21.2,60,30.25,10.0,WNW,18.4,-,N/A,,Mostly Cloudy,300,2012-10-26 19:34:00
2:54 PM,35.6,21.2,56,30.25,10.0,WNW,19.6,-,N/A,,Mostly Cloudy,300,2012-10-26 19:54:00
3:15 PM,35.6,19.4,52,30.25,10.0,WNW,24.2,28.8,N/A,,Overcast,300,2012-10-26 20:15:00
3:34 PM,35.6,19.4,52,30.25,10.0,WNW,23.0,27.6,N/A,,Mostly Cloudy,300,2012-10-26 20:34:00
3:54 PM,35.6,19.4,52,30.25,10.0,NW,18.4,-,N/A,,Overcast,310,2012-10-26 20:54:00
4:14 PM,35.6,19.4,52,30.25,10.0,NW,21.9,26.5,N/A,,Mostly Cloudy,310,2012-10-26 21:14:00
4:34 PM,35.6,19.4,52,30.26,10.0,NW,19.6,-,N/A,,Mostly Cloudy,310,2012-10-26 21:34:00
4:55 PM,33.8,21.2,60,30.26,10.0,NW,12.7,-,N/A,,Mostly Cloudy,310,2012-10-26 21:55:00
5:14 PM,33.8,21.2,60,30.26,10.0,WNW,10.4,-,N/A,,Mostly Cloudy,290,2012-10-26 22:14:00
5:34 PM,33.8,21.2,60,30.26,10.0,West,11.5,-,N/A,,Overcast,280,2012-10-26 22:34:00
5:55 PM,33.8,23.0,65,30.25,10.0,West,9.2,-,N/A,,Overcast,270,2012-10-26 22:55:00
6:14 PM,33.8,24.8,70,30.26,10.0,West,9.2,-,N/A,,Overcast,280,2012-10-26 23:14:00
6:34 PM,33.8,24.8,70,30.26,10.0,West,5.8,-,N/A,,Overcast,270,2012-10-26 23:34:00
6:55 PM,33.8,24.8,70,30.27,10.0,West,6.9,-,N/A,,Overcast,270,2012-10-26 23:55:00
7:14 PM,33.8,24.8,70,30.27,10.0,WSW,6.9,-,N/A,,Overcast,250,2012-10-27 00:14:00
7:34 PM,33.8,24.8,70,30.27,10.0,West,8.1,-,N/A,,Overcast,260,2012-10-27 00:34:00
7:55 PM,32.0,24.8,75,30.27,10.0,West,9.2,-,N/A,,Overcast,270,2012-10-27 00:55:00
8:14 PM,32.0,26.6,80,30.27,10.0,West,13.8,-,N/A,,Overcast,280,2012-10-27 01:14:00
8:35 PM,32.0,26.6,80,30.27,10.0,WNW,10.4,-,N/A,,Overcast,290,2012-10-27 01:35:00
9:14 PM,30.2,26.6,86,30.27,10.0,WNW,5.8,-,N/A,,Overcast,290,2012-10-27 02:14:00
9:35 PM,30.2,26.6,86,30.27,10.0,West,6.9,-,N/A,,Overcast,260,2012-10-27 02:35:00
9:55 PM,30.2,26.6,86,30.27,10.0,WSW,6.9,-,N/A,,Overcast,250,2012-10-27 02:55:00
10:14 PM,30.2,26.6,86,30.27,10.0,West,8.1,-,N/A,,Overcast,260,2012-10-27 03:14:00
10:35 PM,30.2,26.6,86,30.27,10.0,West,6.9,-,N/A,,Overcast,260,2012-10-27 03:35:00
10:54 PM,30.2,26.6,86,30.27,10.0,West,6.9,-,N/A,,Overcast,260,2012-10-27 03:54:00
11:35 PM,30.2,28.4,93,30.27,10.0,West,6.9,-,N/A,,Overcast,270,2012-10-27 04:35:00
11:54 PM,30.2,28.4,93,30.27,10.0,West,6.9,-,N/A,,Overcast,260,2012-10-27 04:54:00